• In Deutschland
  • Länderverzeichnis
  • Für 7 Tage
  • Wassertemperatur
  • Satellitenkarten
  • Wetterkarte
  • Widgets
  • user-avatar
    Anmelden

    Stündliche Wetter Cipikan

    Heute, 21 August, Dienstag

    Zeit Temperatur Niederschläge Wind Luftdruck Luftfeuchtigkeit
    00:00 +10°C° 0 mm 2 m/S 666 mmHg 90%
    01:00 +11°C° 0 mm 1 m/S 666 mmHg 90%
    02:00 +10°C° 0 mm 1 m/S 666 mmHg 91%
    03:00 +10°C° 0 mm 1 m/S 666 mmHg 92%
    04:00 +10°C° 0 mm 1 m/S 666 mmHg 92%
    05:00 +9°C° 0 mm 1 m/S 666 mmHg 92%
    06:00 +10°C° 0 mm 2 m/S 666 mmHg 87%
    07:00 +13°C° 0 mm 2 m/S 666 mmHg 81%
    08:00 +15°C° 0 mm 2 m/S 667 mmHg 75%
    09:00 +16°C° 0 mm 2 m/S 667 mmHg 69%
    10:00 +18°C° 0 mm 2 m/S 667 mmHg 62%
    11:00 +19°C° 0 mm 3 m/S 667 mmHg 55%
    12:00 +20°C° 0 mm 3 m/S 667 mmHg 52%
    13:00 +21°C° 0 mm 3 m/S 667 mmHg 49%
    14:00 +21°C° 0 mm 3 m/S 667 mmHg 46%
    15:00 +21°C° 0 mm 2 m/S 667 mmHg 46%
    16:00 +23°C° 0 mm 2 m/S 667 mmHg 46%
    17:00 +23°C° 0 mm 2 m/S 667 mmHg 46%
    18:00 +19°C° 0 mm 2 m/S 667 mmHg 53%
    19:00 +17°C° 0 mm 2 m/S 666 mmHg 61%
    20:00 +15°C° 0 mm 1 m/S 666 mmHg 69%
    21:00 +14°C° 0 mm 1 m/S 666 mmHg 72%
    22:00 +14°C° 0 mm 1 m/S 666 mmHg 75%
    23:00 +13°C° 0 mm 1 m/S 666 mmHg 78%

    Morgen, 22 August, Mittwoch

    Zeit Temperatur Niederschläge Wind Luftdruck Luftfeuchtigkeit
    00:00 +12°C° 0 mm 1 m/S 666 mmHg 79%
    01:00 +12°C° 0 mm 1 m/S 666 mmHg 81%
    02:00 +10°C° 0 mm 0 m/S 666 mmHg 82%
    03:00 +10°C° 0 mm 0 m/S 666 mmHg 83%
    04:00 +10°C° 0 mm 0 m/S 665 mmHg 84%
    05:00 +9°C° 0 mm 0 m/S 665 mmHg 84%
    06:00 +12°C° 0 mm 0 m/S 666 mmHg 78%
    07:00 +14°C° 0 mm 0 m/S 667 mmHg 71%
    08:00 +16°C° 0 mm 0 m/S 668 mmHg 64%
    09:00 +19°C° 0 mm 1 m/S 668 mmHg 59%
    10:00 +21°C° 0 mm 1 m/S 668 mmHg 53%
    11:00 +22°C° 0 mm 1 m/S 668 mmHg 48%
    12:00 +23°C° 0 mm 2 m/S 668 mmHg 46%
    13:00 +24°C° 0 mm 2 m/S 668 mmHg 43%
    14:00 +24°C° 0 mm 2 m/S 668 mmHg 41%
    15:00 +24°C° 0,1 mm 2 m/S 667 mmHg 41%
    16:00 +24°C° 0,1 mm 2 m/S 667 mmHg 41%
    17:00 +24°C° 0,1 mm 2 m/S 667 mmHg 40%
    18:00 +21°C° 0 mm 2 m/S 667 mmHg 47%
    19:00 +20°C° 0 mm 1 m/S 666 mmHg 55%
    20:00 +16°C° 0 mm 1 m/S 666 mmHg 62%
    21:00 +16°C° 0 mm 1 m/S 666 mmHg 65%
    22:00 +15°C° 0 mm 1 m/S 666 mmHg 69%
    23:00 +14°C° 0 mm 1 m/S 666 mmHg 72%

    übermorgen, 23 August, Donnerstag

    Zeit Temperatur Niederschläge Wind Luftdruck Luftfeuchtigkeit
    00:00 +13°C° 0 mm 1 m/S 666 mmHg 73%
    01:00 +13°C° 0 mm 1 m/S 666 mmHg 75%
    02:00 +12°C° 0 mm 1 m/S 666 mmHg 76%
    03:00 +12°C° 0 mm 1 m/S 666 mmHg 77%
    04:00 +12°C° 0 mm 1 m/S 666 mmHg 77%
    05:00 +12°C° 0 mm 1 m/S 666 mmHg 78%
    06:00 +14°C° 0 mm 1 m/S 666 mmHg 72%
    07:00 +15°C° 0 mm 1 m/S 667 mmHg 66%
    08:00 +18°C° 0 mm 1 m/S 668 mmHg 60%
    09:00 +20°C° 0 mm 1 m/S 668 mmHg 55%
    10:00 +21°C° 0 mm 1 m/S 668 mmHg 51%
    11:00 +22°C° 0 mm 1 m/S 668 mmHg 46%
    12:00 +23°C° 0 mm 2 m/S 668 mmHg 44%
    13:00 +23°C° 0 mm 2 m/S 668 mmHg 42%
    14:00 +24°C° 0 mm 2 m/S 668 mmHg 40%
    15:00 +24°C° 0 mm 2 m/S 668 mmHg 39%
    16:00 +24°C° 0 mm 2 m/S 668 mmHg 39%
    17:00 +25°C° 0 mm 2 m/S 668 mmHg 38%
    18:00 +22°C° 0 mm 1 m/S 667 mmHg 46%
    19:00 +20°C° 0 mm 1 m/S 667 mmHg 54%
    20:00 +18°C° 0 mm 1 m/S 666 mmHg 61%
    21:00 +16°C° 0 mm 1 m/S 666 mmHg 64%
    22:00 +15°C° 0 mm 1 m/S 666 mmHg 67%
    23:00 +15°C° 0 mm 1 m/S 666 mmHg 70%

    24 August, Freitag

    Zeit Temperatur Niederschläge Wind Luftdruck Luftfeuchtigkeit
    00:00 +13°C° 0 mm 0 m/S 666 mmHg 72%
    01:00 +13°C° 0 mm 0 m/S 666 mmHg 74%
    02:00 +12°C° 0 mm 0 m/S 666 mmHg 76%
    03:00 +12°C° 0 mm 0 m/S 666 mmHg 78%
    04:00 +12°C° 0 mm 0 m/S 666 mmHg 79%
    05:00 +11°C° 0 mm 0 m/S 665 mmHg 80%
    06:00 +14°C° 0 mm 1 m/S 666 mmHg 74%
    07:00 +16°C° 0 mm 1 m/S 666 mmHg 68%
    08:00 +19°C° 0 mm 1 m/S 667 mmHg 62%
    09:00 +21°C° 0 mm 1 m/S 667 mmHg 58%
    10:00 +21°C° 0 mm 2 m/S 667 mmHg 55%
    11:00 +24°C° 0 mm 2 m/S 667 mmHg 51%
    12:00 +25°C° 0,1 mm 3 m/S 667 mmHg 49%
    13:00 +25°C° 0,1 mm 4 m/S 667 mmHg 48%
    14:00 +26°C° 0,1 mm 4 m/S 667 mmHg 47%
    15:00 +26°C° 0,5 mm 4 m/S 666 mmHg 51%
    16:00 +25°C° 0,5 mm 4 m/S 666 mmHg 56%
    17:00 +23°C° 0,5 mm 4 m/S 666 mmHg 60%
    18:00 +22°C° 1 mm 3 m/S 665 mmHg 67%
    19:00 +20°C° 1 mm 3 m/S 665 mmHg 74%
    20:00 +18°C° 1 mm 2 m/S 665 mmHg 82%
    21:00 +18°C° 1,4 mm 2 m/S 665 mmHg 85%
    22:00 +17°C° 1,4 mm 2 m/S 665 mmHg 88%
    23:00 +17°C° 1,4 mm 2 m/S 665 mmHg 91%

    25 August, Samstag

    Zeit Temperatur Niederschläge Wind Luftdruck Luftfeuchtigkeit
    00:00 +16°C° 0,5 mm 2 m/S 664 mmHg 92%
    01:00 +16°C° 0,5 mm 1 m/S 664 mmHg 93%
    02:00 +15°C° 0,5 mm 1 m/S 664 mmHg 94%
    03:00 +15°C° 0 mm 1 m/S 664 mmHg 94%
    04:00 +15°C° 0 mm 2 m/S 664 mmHg 95%
    05:00 +14°C° 0 mm 2 m/S 664 mmHg 95%
    06:00 +15°C° 0 mm 2 m/S 665 mmHg 93%
    07:00 +16°C° 0 mm 2 m/S 665 mmHg 90%
    08:00 +18°C° 0 mm 1 m/S 665 mmHg 87%
    09:00 +18°C° 0,1 mm 1 m/S 666 mmHg 81%
    10:00 +19°C° 0,1 mm 1 m/S 666 mmHg 75%
    11:00 +20°C° 0,1 mm 1 m/S 666 mmHg 70%
    12:00 +20°C° 0,2 mm 2 m/S 666 mmHg 66%
    13:00 +21°C° 0,2 mm 2 m/S 667 mmHg 62%
    14:00 +21°C° 0,2 mm 2 m/S 667 mmHg 59%
    15:00 +21°C° 0,2 mm 3 m/S 667 mmHg 59%
    16:00 +21°C° 0,2 mm 3 m/S 667 mmHg 60%
    17:00 +21°C° 0,2 mm 4 m/S 667 mmHg 60%
    18:00 +19°C° 0 mm 3 m/S 667 mmHg 66%
    19:00 +18°C° 0 mm 3 m/S 667 mmHg 72%
    20:00 +16°C° 0 mm 3 m/S 667 mmHg 78%
    21:00 +14°C° 0 mm 3 m/S 667 mmHg 81%
    22:00 +14°C° 0 mm 2 m/S 667 mmHg 83%
    23:00 +14°C° 0 mm 2 m/S 667 mmHg 86%

    26 August, Sonntag

    Zeit Temperatur Niederschläge Wind Luftdruck Luftfeuchtigkeit
    00:00 +13°C° 0 mm 2 m/S 667 mmHg 88%
    01:00 +13°C° 0 mm 2 m/S 667 mmHg 90%
    02:00 +13°C° 0 mm 2 m/S 667 mmHg 91%
    03:00 +12°C° 0 mm 2 m/S 667 mmHg 92%
    04:00 +12°C° 0 mm 2 m/S 667 mmHg 92%
    05:00 +10°C° 0 mm 2 m/S 667 mmHg 93%
    06:00 +12°C° 0 mm 2 m/S 668 mmHg 88%
    07:00 +13°C° 0 mm 2 m/S 668 mmHg 83%
    08:00 +13°C° 0 mm 3 m/S 669 mmHg 78%
    09:00 +16°C° 0 mm 3 m/S 669 mmHg 70%
    10:00 +17°C° 0 mm 3 m/S 669 mmHg 62%
    11:00 +19°C° 0 mm 3 m/S 669 mmHg 55%
    12:00 +20°C° 0 mm 3 m/S 669 mmHg 51%
    13:00 +21°C° 0 mm 3 m/S 669 mmHg 47%
    14:00 +21°C° 0 mm 3 m/S 669 mmHg 43%
    15:00 +21°C° 0 mm 3 m/S 669 mmHg 42%
    16:00 +21°C° 0 mm 4 m/S 669 mmHg 42%
    17:00 +21°C° 0 mm 4 m/S 669 mmHg 41%
    18:00 +19°C° 0 mm 3 m/S 669 mmHg 47%
    19:00 +17°C° 0 mm 3 m/S 669 mmHg 53%
    20:00 +15°C° 0 mm 2 m/S 669 mmHg 58%
    21:00 +14°C° 0 mm 2 m/S 669 mmHg 61%
    22:00 +14°C° 0 mm 2 m/S 669 mmHg 64%
    23:00 +13°C° 0 mm 2 m/S 669 mmHg 67%
    Mehr zeigen